Content
SEND FEEDBACK

Daily
Averages
Monthly
Summary
United States of America

BARTON HILLS, MICHIGAN


Home > North America > United States > Michigan
Elevation: 899 feet     Latitude: 42 18N     Longitude: 083 43W

WEATHER
 
SELECT A DAY
Number of Records: 208,871;   Date Range: 1/1/95 - 12/18/14
 
SHARE

PRINT THIS DATA

[ ← Previous Day ]
WEATHER ALMANAC - APRIL 1, 2013
[ Next Day → ]
[ °C ]   °F
Weather ElementAverageHighLow
Temperature32.9 °F39 °F (2:53 pm)26.1 °F (11:53 pm)
Dewpoint14.1 °F26.6 °F (2:51 am)10 °F (12:53 pm)
Humidity47.5 %73 % (2:53 am)30 % (2:53 pm)
Barometer29.96 in30.12 in (10:53 pm)29.73 in (1:53 am)
Wind Speed13.2 mph19.6 mph (4:53 pm)
Wind Gust26.5 mph (2:53 pm)
Weather ElementAverage
Visibility10 mi
Wind DirectionNW (311.7 °)

Weather ElementTotal
Precipitation---
Heating Degree Days32.5 (Base 65)
Averaged from 24 records on April 1, 2013
WEATHER CONDITIONS BREAKOUT
WIND DIRECTION BREAKOUT
WEATHER BY HOUR - APRIL 1, 2013
[ °C ]   °F
Local TimeTemperatureDewpointHumidityBarometerVisibilityWind DirectionWind SpeedGust SpeedPrecipitationEventsConditions
1:53 AM37.0 °F26.1 °F65 %29.73 in10.0 miWNW (300°)10.4 mphClear
2:51 AM35.6 °F26.6 °F70 %29.75 in10.0 miNNW (340°)15.0 mph23.0 mphMostly Cloudy
2:53 AM34.0 °F26.1 °F73 %29.76 in10.0 miNNW (340°)12.7 mph21.9 mphMostly Cloudy
3:53 AM34.0 °F23.0 °F64 %29.79 in10.0 miNNW (340°)13.8 mph19.6 mph0.00 inSnowLight Snow
4:53 AM32.0 °F19.0 °F59 %29.82 in10.0 miNW (320°)10.4 mph20.7 mph0.00 inScattered Clouds
5:53 AM30.0 °F12.9 °F49 %29.86 in10.0 miNNW (330°)10.4 mph20.7 mphClear
6:53 AM28.9 °F14.0 °F54 %29.89 in10.0 miNW (320°)8.1 mphClear
7:53 AM28.9 °F15.1 °F56 %29.93 in10.0 miNW (320°)8.1 mph16.1 mphClear
8:53 AM30.9 °F12.0 °F46 %29.95 in10.0 miNW (320°)18.4 mph21.9 mphClear
9:53 AM33.1 °F12.9 °F43 %29.97 in10.0 miWNW (300°)13.8 mph19.6 mphMostly Cloudy
10:53 AM32.0 °F12.0 °F44 %29.99 in10.0 miNW (310°)12.7 mph21.9 mphMostly Cloudy
11:53 AM34.0 °F10.9 °F38 %30.00 in10.0 miNW (310°)13.8 mph20.7 mphMostly Cloudy
12:53 PM37.0 °F10.0 °F33 %30.01 in10.0 miWNW (290°)17.3 mph25.3 mphMostly Cloudy
1:53 PM37.0 °F10.9 °F34 %30.01 in10.0 miNW (310°)18.4 mph23.0 mphMostly Cloudy
2:53 PM39.0 °F10.0 °F30 %30.01 in10.0 miNW (320°)15.0 mph26.5 mphMostly Cloudy
3:53 PM37.0 °F10.9 °F34 %30.01 in10.0 miNW (310°)15.0 mph24.2 mphMostly Cloudy
4:53 PM37.0 °F10.0 °F33 %30.02 in10.0 miWest (280°)19.6 mph25.3 mphMostly Cloudy
5:53 PM36.0 °F12.0 °F37 %30.04 in10.0 miNW (310°)15.0 mph23.0 mphOvercast
6:53 PM33.1 °F12.0 °F42 %30.06 in10.0 miNW (310°)10.4 mph24.2 mphOvercast
7:53 PM30.9 °F10.0 °F42 %30.08 in10.0 miWNW (290°)15.0 mph21.9 mphOvercast
8:53 PM30.0 °F10.0 °F43 %30.10 in10.0 miWNW (300°)15.0 mph21.9 mphMostly Cloudy
9:53 PM28.0 °F10.9 °F49 %30.11 in10.0 miNW (310°)9.2 mphPartly Cloudy
10:53 PM27.0 °F10.0 °F49 %30.12 in10.0 miWNW (300°)10.4 mphClear
11:53 PM26.1 °F10.9 °F53 %30.12 in10.0 miWNW (300°)8.1 mphClear
Hourly data recorded from KARB, located miles away from Barton Hills, Michigan







STORIES FROM OUR PARTNERS